FW9241 Weather Reports


time (UTC)temp
C
wind
direction
speed
KPH
gust
KPH
rain 1hr
cm
rain 24hr
cm
rain mn
cm
humidity
%
barometer
mb
20260504081554 3 0 0.0 0.0 0.00 0.00 0.00 73 1009.8
20260504044555 1 0 0.0 0.0 0.00 0.00 0.00 78 1010.2
20260504043100 1 0 0.0 0.0 0.00 0.00 0.00 74 1010.2
20260504041557 1 0 0.0 0.0 0.00 0.00 0.00 75 1010.2
20260504040056 2 0 0.0 0.0 0.00 0.00 0.00 73 1010.0
20260504034554 2 0 0.0 0.0 0.00 0.00 0.00 71 1010.2
20260504033059 2 0 0.0 0.0 0.00 0.00 0.00 70 1010.0
20260504031602 2 0 0.0 0.0 0.00 0.00 0.00 68 1009.8
20260504030056 2 0 0.0 0.0 0.00 0.00 0.00 68 1009.8
20260504024601 3 0 0.0 0.0 0.00 0.00 0.00 67 1009.9
20260504023148 3 0 0.0 0.0 0.00 0.00 0.00 66 1009.9
20260504023056 3 0 0.0 0.0 0.00 0.00 0.00 66 1009.9
20260504021559 3 0 0.0 0.0 0.00 0.00 0.00 60 1010.0
20260504020131 4 0 0.0 0.0 0.00 0.00 0.00 58 1009.8
20260504014604 5 0 0.0 0.0 0.00 0.00 0.00 58 1009.8
20260504013117 5 0 0.0 0.0 0.00 0.00 0.00 56 1009.7
20260504011555 5 0 0.0 0.0 0.00 0.00 0.00 51 1009.4
20260504010055 6 0 0.0 0.0 0.00 0.00 0.00 51 1009.2
20260504004630 6 0 0.0 0.0 0.00 0.00 0.00 52 1009.2
20260504003101 6 0 0.0 0.0 0.00 0.00 0.00 49 1009.0
20260504001621 7 0 0.0 1.6 0.00 0.00 0.00 44 1008.6
20260504000105 7 0 0.0 1.6 0.00 0.00 0.00 44 1008.4
20260503234604 8 0 0.0 1.6 0.00 0.00 0.00 41 1008.2
20260503233101 8 0 0.0 6.4 0.00 0.00 0.00 39 1008.2
20260503231557 8 293 1.6 6.4 0.00 0.00 0.00 38 1008.0
20260503230115 9 286 1.6 8.0 0.00 0.00 0.00 38 1008.0
20260503224604 9 311 3.2 8.0 0.00 0.00 0.00 37 1008.0
20260503223056 10 343 3.2 17.7 0.00 0.00 0.00 38 1007.9
20260503221603 10 275 3.2 9.7 0.00 0.00 0.00 38 1007.8
20260503220056 9 0 3.2 11.3 0.00 0.00 0.00 40 1007.7
20260503214600 9 269 3.2 14.5 0.00 0.00 0.00 40 1007.8
20260503213056 9 295 3.2 11.3 0.00 0.00 0.00 40 1007.6
20260503211556 9 305 3.2 17.7 0.00 0.00 0.00 42 1007.6
20260503210056 8 246 1.6 17.7 0.00 0.00 0.00 43 1007.7
20260503204555 8 264 3.2 17.7 0.00 0.00 0.00 43 1007.7
20260503203112 8 331 4.8 9.7 0.00 0.00 0.00 43 1007.7
20260503201557 8 272 3.2 17.7 0.00 0.00 0.00 44 1007.6
20260503200100 8 335 3.2 11.3 0.00 0.00 0.00 43 1007.7
20260503194603 8 283 3.2 9.7 0.00 0.00 0.00 44 1007.9
20260503193100 7 278 3.2 14.5 0.00 0.00 0.00 45 1007.9
20260503191558 7 260 4.8 14.5 0.00 0.00 0.00 44 1007.9
20260503190108 8 323 3.2 12.9 0.00 0.00 0.00 43 1007.9
20260503184559 8 279 4.8 20.9 0.00 0.00 0.00 43 1007.9
20260503183103 8 307 1.6 9.7 0.00 0.00 0.00 45 1007.9
20260503181606 8 346 3.2 12.9 0.00 0.00 0.00 44 1007.9
20260503180113 8 340 3.2 16.1 0.00 0.00 0.00 43 1007.6
20260503174600 8 21 3.2 16.1 0.00 0.00 0.00 46 1007.6
20260503173106 8 303 3.2 12.9 0.00 0.00 0.00 42 1007.5
20260503171603 7 310 3.2 12.9 0.00 0.00 0.00 46 1007.7